Alva, OK

3:00 AM CDT on July 24, 2017 (GMT -0500)
Alva Regional

Weather History for KAVK - November, 2011

Change the Weather History Date:

Saturday, November 12, 2011

  Actual Average Record
Temperature  
Mean Temperature 56 °F -  
Max Temperature 75 °F 61 °F 82 °F (1971)
Min Temperature 37 °F 37 °F 12 °F (1950)
Degree Days  
Heating Degree Days 9    
Growing Degree Days 6 (Base 50)    
Moisture  
Dew Point 35 °F    
Average Humidity 52    
Maximum Humidity 87    
Minimum Humidity 18    
Precipitation  
Precipitation 0.00 in - - ()
Sea Level Pressure  
Sea Level Pressure 29.61 in    
Wind  
Wind Speed 13 mph (SSW)    
Max Wind Speed 26 mph    
Max Gust Speed 33 mph    
Visibility 10 miles    
Events      
Averages and records for this station are not official NWS values.
T = Trace of Precipitation, MM = Missing Value Source: NWS Daily Summary

Daily Weather History Graph

Daily Weather History Graph

Search for Another Location

Airport or City:

Trip Planner

Search our weather history database for the weather conditions in past years. The results will help you decide how hot, cold, wet, or windy it might be!

Date:

Astronomy

Nov. 12, 2011 Rise Set
Actual Time 7:09 AM CST 5:27 PM CST
Civil Twilight 6:41 AM CST 5:55 PM CST
Nautical Twilight 6:10 AM CST 6:26 PM CST
Astronomical Twilight 5:40 AM CST 6:56 PM CST
Moon 6:47 PM CST (11/12) 8:50 AM CST (11/12)
Length of Visible Light 11h 13m
Length of Day
10h 18m
Full, 97% of the Moon is Illuminated
Nov 12
Full
Nov 18
Last Quarter
Nov 25
New
Dec 2
First Quarter
Dec 10
Full

Hourly Weather History & Observations

Time (CST) Temp. Windchill Dew Point Humidity Pressure Visibility Wind Dir Wind Speed Gust Speed Precip Events Conditions
12:00 AM 39.2 °F 33.0 °F 35.6 °F 87% 29.75 in 10.0 mi South 9.2 mph - N/A   Clear
12:20 AM 39.2 °F 32.5 °F 35.6 °F 87% 29.74 in 10.0 mi South 10.4 mph - N/A   Clear
12:40 AM 39.2 °F 32.5 °F 35.6 °F 87% 29.74 in 10.0 mi South 10.4 mph - N/A   Clear
1:00 AM 39.2 °F 32.5 °F 35.6 °F 87% 29.73 in 10.0 mi South 10.4 mph - N/A   Clear
1:20 AM 39.2 °F 33.6 °F 35.6 °F 87% 29.71 in 10.0 mi South 8.1 mph - N/A   Clear
1:40 AM 37.4 °F 30.3 °F 33.8 °F 87% 29.71 in 10.0 mi South 10.4 mph - N/A   Clear
2:00 AM 37.4 °F 30.3 °F 33.8 °F 87% 29.70 in 10.0 mi South 10.4 mph - N/A   Clear
2:20 AM 41.0 °F 33.9 °F 35.6 °F 81% 29.68 in 10.0 mi South 12.7 mph - N/A   Clear
2:40 AM 41.0 °F 34.7 °F 35.6 °F 81% 29.67 in 10.0 mi South 10.4 mph - N/A   Clear
3:00 AM 41.0 °F 34.7 °F 33.8 °F 76% 29.67 in 10.0 mi SSW 10.4 mph - N/A   Clear
3:20 AM 44.6 °F 38.8 °F 35.6 °F 71% 29.66 in 10.0 mi South 11.5 mph - N/A   Clear
3:40 AM 44.6 °F 39.7 °F 35.6 °F 71% 29.65 in 10.0 mi South 9.2 mph - N/A   Clear
4:00 AM 44.6 °F 38.4 °F 35.6 °F 71% 29.64 in 10.0 mi South 12.7 mph - N/A   Clear
4:20 AM 46.4 °F 41.9 °F 35.6 °F 66% 29.64 in 10.0 mi SW 9.2 mph - N/A   Clear
4:40 AM 46.4 °F 41.1 °F 35.6 °F 66% 29.64 in 10.0 mi SSW 11.5 mph - N/A   Clear
5:00 AM 46.4 °F 41.5 °F 35.6 °F 66% 29.63 in 10.0 mi SSW 10.4 mph - N/A   Clear
5:20 AM 46.4 °F 40.4 °F 35.6 °F 66% 29.62 in 10.0 mi South 13.8 mph - N/A   Clear
5:40 AM 46.4 °F 39.8 °F 33.8 °F 62% 29.61 in 10.0 mi South 16.1 mph - N/A   Clear
6:00 AM 48.2 °F - 33.8 °F 58% 29.61 in 10.0 mi South 13.8 mph - N/A   Clear
6:20 AM 48.2 °F - 32.0 °F 54% 29.61 in 10.0 mi South 11.5 mph - N/A   Clear
6:40 AM 48.2 °F - 33.8 °F 58% 29.60 in 10.0 mi South 16.1 mph - N/A   Clear
7:00 AM 46.4 °F 40.7 °F 33.8 °F 62% 29.59 in 10.0 mi South 12.7 mph - N/A   Clear
7:40 AM 46.4 °F 41.1 °F 33.8 °F 62% 29.60 in 10.0 mi South 11.5 mph - N/A   Clear
8:00 AM 48.2 °F - 33.8 °F 58% 29.61 in 10.0 mi SSW 15.0 mph - N/A   Clear
8:20 AM 50.0 °F - 35.6 °F 58% 29.59 in 10.0 mi SSW 19.6 mph 27.6 mph N/A   Clear
8:40 AM 53.6 °F - 33.8 °F 47% 29.60 in 10.0 mi SSW 20.7 mph 24.2 mph N/A   Clear
9:00 AM 53.6 °F - 35.6 °F 51% 29.59 in 10.0 mi SW 21.9 mph 31.1 mph N/A   Clear
9:20 AM 55.4 °F - 33.8 °F 44% 29.59 in 10.0 mi SW 21.9 mph 33.4 mph N/A   Clear
9:40 AM 57.2 °F - 33.8 °F 41% 29.59 in 10.0 mi SW 24.2 mph 33.4 mph N/A   Clear
10:00 AM 59.0 °F - 32.0 °F 36% 29.59 in 10.0 mi SW 26.5 mph 33.4 mph N/A   Clear
10:20 AM 59.0 °F - 35.6 °F 42% 29.59 in 10.0 mi SW 21.9 mph 29.9 mph N/A   Clear
10:40 AM 59.0 °F - 33.8 °F 39% 29.58 in 10.0 mi SW 25.3 mph - N/A   Clear
11:00 AM 60.8 °F - 35.6 °F 39% 29.59 in 10.0 mi SW 18.4 mph 27.6 mph N/A   Clear
11:20 AM 62.6 °F - 33.8 °F 34% 29.59 in 10.0 mi SW 20.7 mph 28.8 mph N/A   Clear
11:40 AM 62.6 °F - 35.6 °F 37% 29.59 in 10.0 mi SW 19.6 mph 25.3 mph N/A   Clear
12:00 PM 66.2 °F - 35.6 °F 32% 29.59 in 10.0 mi SW 18.4 mph 24.2 mph N/A   Clear
12:20 PM 69.8 °F - 32.0 °F 25% 29.57 in 10.0 mi SW 21.9 mph 28.8 mph N/A   Clear
1:00 PM 71.6 °F - 32.0 °F 23% 29.57 in 10.0 mi WSW 15.0 mph 21.9 mph N/A   Clear
1:20 PM 71.6 °F - 30.2 °F 22% 29.56 in 10.0 mi WSW 19.6 mph 25.3 mph N/A   Clear
1:40 PM 73.4 °F - 32.0 °F 22% 29.56 in 10.0 mi SW 15.0 mph 23.0 mph N/A   Clear
2:00 PM 73.4 °F - 32.0 °F 22% 29.57 in 10.0 mi West 16.1 mph - N/A   Clear
2:20 PM 75.2 °F - 28.4 °F 18% 29.56 in 10.0 mi WSW 17.3 mph 24.2 mph N/A   Clear
2:40 PM 75.2 °F - 32.0 °F 21% 29.56 in 10.0 mi West 16.1 mph 19.6 mph N/A   Clear
3:00 PM 75.2 °F - 32.0 °F 21% 29.56 in 10.0 mi WSW 13.8 mph 20.7 mph N/A   Clear
3:20 PM 75.2 °F - 32.0 °F 21% 29.56 in 10.0 mi West 12.7 mph - N/A   Clear
3:40 PM 75.2 °F - 32.0 °F 21% 29.57 in 10.0 mi WSW 15.0 mph - N/A   Clear
4:00 PM 73.4 °F - 35.6 °F 25% 29.57 in 10.0 mi WSW 11.5 mph - N/A   Clear
4:20 PM 69.8 °F - 39.2 °F 33% 29.57 in 10.0 mi SSW 8.1 mph - N/A   Clear
4:40 PM 66.2 °F - 41.0 °F 40% 29.59 in 10.0 mi SSW 16.1 mph 23.0 mph N/A   Clear
5:00 PM 64.4 °F - 39.2 °F 40% 29.59 in 10.0 mi SSW 17.3 mph 23.0 mph N/A   Clear
5:20 PM 60.8 °F - 41.0 °F 48% 29.58 in 10.0 mi SSW 13.8 mph - N/A   Clear
5:40 PM 59.0 °F - 39.2 °F 48% 29.59 in 10.0 mi SSW 11.5 mph - N/A   Clear
6:00 PM 59.0 °F - 41.0 °F 51% 29.58 in 10.0 mi South 12.7 mph - N/A   Clear
6:20 PM 59.0 °F - 39.2 °F 48% 29.58 in 10.0 mi South 16.1 mph - N/A   Clear
6:40 PM 57.2 °F - 41.0 °F 55% 29.57 in 10.0 mi South 12.7 mph - N/A   Clear
7:00 PM 55.4 °F - 41.0 °F 58% 29.57 in 10.0 mi SSE 11.5 mph - N/A   Clear
7:20 PM 53.6 °F - 41.0 °F 62% 29.57 in 10.0 mi South 12.7 mph - N/A   Clear
7:40 PM 53.6 °F - 41.0 °F 62% 29.57 in 10.0 mi South 8.1 mph - N/A   Clear
8:00 PM 51.8 °F - 41.0 °F 67% 29.57 in 10.0 mi South 10.4 mph - N/A   Clear
8:20 PM 53.6 °F - 41.0 °F 62% 29.56 in 10.0 mi South 12.7 mph - N/A   Clear
9:00 PM 55.4 °F - 39.2 °F 54% 29.55 in 10.0 mi SSW 11.5 mph - N/A   Clear
9:40 PM 51.8 °F - 39.2 °F 62% 29.54 in 10.0 mi South 13.8 mph - N/A   Clear
10:00 PM 55.4 °F - 35.6 °F 47% 29.52 in 10.0 mi SSW 12.7 mph - N/A   Clear
10:20 PM 57.2 °F - 33.8 °F 41% 29.52 in 10.0 mi SSW 12.7 mph - N/A   Clear
10:40 PM 57.2 °F - 32.0 °F 38% 29.50 in 10.0 mi SW 18.4 mph - N/A   Clear
11:00 PM 59.0 °F - 32.0 °F 36% 29.50 in 10.0 mi SW 19.6 mph 26.5 mph N/A   Clear
11:20 PM 57.2 °F - 32.0 °F 38% 29.49 in 10.0 mi SW 21.9 mph 25.3 mph N/A   Clear
11:40 PM 57.2 °F - 32.0 °F 38% 29.49 in 10.0 mi SW 21.9 mph 27.6 mph N/A   Clear